(°C)
14°
14°
15°
17°
18°
19°
20°
(°C)
14°
15°
16°
17°
18°
19°
20°
E
E
ESE
S
E
ENE
ESE
(km/h)
3-9
3-9
3-9
2-6
2-5
3-6
2-9
(mm)
0
0
0
0
0
0
0.5
(%)
12
12
12
12
12
13
30

Elevația soarelui

/ 7.3°
sun-icon
UV 2
07:54
18:47
Al doilea pătrar (222°)
20:58
11:29

METAR pentru Ioannina (LGIO)

Ora Condiții Temperatură/
Punctul de rouă
Vânt Vizibilitate Vremea Nori Presiune Schimbă Brut
13°C / 13°C variable 1kt - 1023 - LGIO 240450Z AUTO VRB01KT //// // ////// 13/13 Q1023 RE//
14°C / 13°C variable 1kt - 1023 - LGIO 240420Z AUTO VRB01KT //// // ////// 14/13 Q1023 RE//
14°C / 13°C variable 0kt - 1023 - LGIO 240350Z AUTO 00000KT //// // ////// 14/13 Q1023 RE//
14°C / 13°C variable 0kt - 1023 - LGIO 240320Z AUTO 00000KT //// // ////// 14/13 Q1023 RE//
14°C / 13°C variable 0kt - 1023 - LGIO 240250Z AUTO 00000KT //// // ////// 14/13 Q1023 RE//
14°C / 14°C variable 1kt - 1023 - LGIO 240220Z AUTO VRB01KT //// // ////// 14/14 Q1023 RE//
14°C / 13°C variable 1kt - 1023 - LGIO 240150Z AUTO VRB01KT //// // ////// 14/13 Q1023 RERA
13°C / 13°C variable 0kt Light Rain 1.00mm precipitation Vertical Visibility of 0ft. 1023 - LGIO 240120Z AUTO 00000KT //// -RA ////// 13/13 Q1023 RE//
14°C / 14°C variable 0kt Light Rain 1.00mm precipitation Vertical Visibility of 0ft. 1024 - LGIO 240050Z AUTO 00000KT //// -RA ////// 14/14 Q1024 RE//
14°C / 14°C variable 1kt Light Rain 1.00mm precipitation Vertical Visibility of 0ft. 1024 - LGIO 240020Z AUTO VRB01KT //// -RA ////// 14/14 Q1024 RE//
14°C / 14°C variable 0kt - 1024 - LGIO 232350Z AUTO 00000KT //// // ////// 14/14 Q1024 RE//
14°C / 14°C variable 1kt - 1024 - LGIO 232320Z AUTO VRB01KT //// // ////// 14/14 Q1024 RE//
14°C / 14°C variable 2kt - 1024 - LGIO 232250Z AUTO VRB02KT //// // ////// 14/14 Q1024 RE//
14°C / 14°C variable 2kt - 1024 - LGIO 232220Z AUTO VRB02KT //// // ////// 14/14 Q1024 RE//
IFR 13°C / 13°C variable 0kt 3000m Mist Vertical Visibility of 0ft.
Scattered Clouds 2500ft
Broken Clouds 8000ft
1024 - LGIO 232150Z 00000KT 3000 BR FEW006 SCT025 BKN080 13/13 Q1024
IFR 14°C / 14°C variable 0kt 4000m Mist Vertical Visibility of 0ft.
Scattered Clouds 2500ft
Overcast 8000ft
1024 - LGIO 232120Z 00000KT 4000 BR FEW006 SCT025 OVC080 14/14 Q1024
13°C / 13°C variable 2kt - 1024 - LGIO 232050Z AUTO VRB02KT //// // ////// 13/13 Q1024 RE//
13°C / 13°C variable 1kt - 1024 - LGIO 232020Z AUTO VRB01KT //// // ////// 13/13 Q1024 RE//
13°C / 12°C variable 0kt - 1024 - LGIO 231950Z AUTO 00000KT //// // ////// 13/12 Q1024 RE//
14°C / 14°C variable 0kt - 1024 - LGIO 231920Z AUTO 00000KT //// // ////// 14/14 Q1024 RE//
14°C / 14°C variable 0kt - 1024 - LGIO 231850Z AUTO 00000KT //// // ////// 14/14 Q1024 RERA
15°C / 15°C variable 2kt Light Rain 1.00mm precipitation Vertical Visibility of 0ft. 1024 - LGIO 231820Z AUTO VRB02KT //// -RA ////// 15/15 Q1024 RE//
VFR 15°C / 15°C variable 0kt >10km Light Rain 1.00mm precipitation Vertical Visibility of 0ft.
Scattered Clouds 2500ft
Overcast 8000ft
1024 - LGIO 231750Z 00000KT 9999 -RA FEW010 SCT025 OVC080 15/15 Q1024
15°C / 15°C variable 2kt - 1024 - LGIO 231720Z AUTO VRB02KT //// // ////// 15/15 Q1024 RE//

13°C / 13°C

[Mai mult]
Vânt variable 1kt
Vizibilitate
Vremea -
Nori
Presiune 1023
Schimbă -
Brut LGIO 240450Z AUTO VRB01KT //// // ////// 13/13 Q1023 RE//

14°C / 13°C

[Mai mult]
Vânt variable 1kt
Vizibilitate
Vremea -
Nori
Presiune 1023
Schimbă -
Brut LGIO 240420Z AUTO VRB01KT //// // ////// 14/13 Q1023 RE//

14°C / 13°C

[Mai mult]
Vânt variable 0kt
Vizibilitate
Vremea -
Nori
Presiune 1023
Schimbă -
Brut LGIO 240350Z AUTO 00000KT //// // ////// 14/13 Q1023 RE//

14°C / 13°C

[Mai mult]
Vânt variable 0kt
Vizibilitate
Vremea -
Nori
Presiune 1023
Schimbă -
Brut LGIO 240320Z AUTO 00000KT //// // ////// 14/13 Q1023 RE//

14°C / 13°C

[Mai mult]
Vânt variable 0kt
Vizibilitate
Vremea -
Nori
Presiune 1023
Schimbă -
Brut LGIO 240250Z AUTO 00000KT //// // ////// 14/13 Q1023 RE//

14°C / 14°C

[Mai mult]
Vânt variable 1kt
Vizibilitate
Vremea -
Nori
Presiune 1023
Schimbă -
Brut LGIO 240220Z AUTO VRB01KT //// // ////// 14/14 Q1023 RE//

14°C / 13°C

[Mai mult]
Vânt variable 1kt
Vizibilitate
Vremea -
Nori
Presiune 1023
Schimbă -
Brut LGIO 240150Z AUTO VRB01KT //// // ////// 14/13 Q1023 RERA

13°C / 13°C

[Mai mult]
Vânt variable 0kt
Vizibilitate
Vremea Light Rain 1.00mm precipitation
Nori Vertical Visibility of 0ft.
Presiune 1023
Schimbă -
Brut LGIO 240120Z AUTO 00000KT //// -RA ////// 13/13 Q1023 RE//

14°C / 14°C

[Mai mult]
Vânt variable 0kt
Vizibilitate
Vremea Light Rain 1.00mm precipitation
Nori Vertical Visibility of 0ft.
Presiune 1024
Schimbă -
Brut LGIO 240050Z AUTO 00000KT //// -RA ////// 14/14 Q1024 RE//

14°C / 14°C

[Mai mult]
Vânt variable 1kt
Vizibilitate
Vremea Light Rain 1.00mm precipitation
Nori Vertical Visibility of 0ft.
Presiune 1024
Schimbă -
Brut LGIO 240020Z AUTO VRB01KT //// -RA ////// 14/14 Q1024 RE//

14°C / 14°C

[Mai mult]
Vânt variable 0kt
Vizibilitate
Vremea -
Nori
Presiune 1024
Schimbă -
Brut LGIO 232350Z AUTO 00000KT //// // ////// 14/14 Q1024 RE//

14°C / 14°C

[Mai mult]
Vânt variable 1kt
Vizibilitate
Vremea -
Nori
Presiune 1024
Schimbă -
Brut LGIO 232320Z AUTO VRB01KT //// // ////// 14/14 Q1024 RE//

14°C / 14°C

[Mai mult]
Vânt variable 2kt
Vizibilitate
Vremea -
Nori
Presiune 1024
Schimbă -
Brut LGIO 232250Z AUTO VRB02KT //// // ////// 14/14 Q1024 RE//

14°C / 14°C

[Mai mult]
Vânt variable 2kt
Vizibilitate
Vremea -
Nori
Presiune 1024
Schimbă -
Brut LGIO 232220Z AUTO VRB02KT //// // ////// 14/14 Q1024 RE//

IFR

13°C / 13°C

[Mai mult]
Vânt variable 0kt
Vizibilitate 3000m
Vremea Mist
Nori Vertical Visibility of 0ft.
Scattered Clouds 2500ft
Broken Clouds 8000ft
Presiune 1024
Schimbă -
Brut LGIO 232150Z 00000KT 3000 BR FEW006 SCT025 BKN080 13/13 Q1024

IFR

14°C / 14°C

[Mai mult]
Vânt variable 0kt
Vizibilitate 4000m
Vremea Mist
Nori Vertical Visibility of 0ft.
Scattered Clouds 2500ft
Overcast 8000ft
Presiune 1024
Schimbă -
Brut LGIO 232120Z 00000KT 4000 BR FEW006 SCT025 OVC080 14/14 Q1024

13°C / 13°C

[Mai mult]
Vânt variable 2kt
Vizibilitate
Vremea -
Nori
Presiune 1024
Schimbă -
Brut LGIO 232050Z AUTO VRB02KT //// // ////// 13/13 Q1024 RE//

13°C / 13°C

[Mai mult]
Vânt variable 1kt
Vizibilitate
Vremea -
Nori
Presiune 1024
Schimbă -
Brut LGIO 232020Z AUTO VRB01KT //// // ////// 13/13 Q1024 RE//

13°C / 12°C

[Mai mult]
Vânt variable 0kt
Vizibilitate
Vremea -
Nori
Presiune 1024
Schimbă -
Brut LGIO 231950Z AUTO 00000KT //// // ////// 13/12 Q1024 RE//

14°C / 14°C

[Mai mult]
Vânt variable 0kt
Vizibilitate
Vremea -
Nori
Presiune 1024
Schimbă -
Brut LGIO 231920Z AUTO 00000KT //// // ////// 14/14 Q1024 RE//

14°C / 14°C

[Mai mult]
Vânt variable 0kt
Vizibilitate
Vremea -
Nori
Presiune 1024
Schimbă -
Brut LGIO 231850Z AUTO 00000KT //// // ////// 14/14 Q1024 RERA

15°C / 15°C

[Mai mult]
Vânt variable 2kt
Vizibilitate
Vremea Light Rain 1.00mm precipitation
Nori Vertical Visibility of 0ft.
Presiune 1024
Schimbă -
Brut LGIO 231820Z AUTO VRB02KT //// -RA ////// 15/15 Q1024 RE//

VFR

15°C / 15°C

[Mai mult]
Vânt variable 0kt
Vizibilitate >10km
Vremea Light Rain 1.00mm precipitation
Nori Vertical Visibility of 0ft.
Scattered Clouds 2500ft
Overcast 8000ft
Presiune 1024
Schimbă -
Brut LGIO 231750Z 00000KT 9999 -RA FEW010 SCT025 OVC080 15/15 Q1024

15°C / 15°C

[Mai mult]
Vânt variable 2kt
Vizibilitate
Vremea -
Nori
Presiune 1024
Schimbă -
Brut LGIO 231720Z AUTO VRB02KT //// // ////// 15/15 Q1024 RE//

TAF pentru Ioannina (LGIO)

From till


From till Wind variable 3kt. Visibility 3000m. Mist . Scattered Clouds 400ft. Broken Clouds 2000ft. Broken Clouds 7000ft.
With 40% probability, from till Visibility 193.121m. Fog . Overcast 100ft.
Becoming from till Wind variable 3kt. Visibility 10km or more. Mist . Few Clouds 800ft. Scattered Clouds 2500ft. Broken Clouds 8000ft.
With 40% probability, Temporarly from till Visibility 6000m. Rain . Scattered Clouds 600ft. Broken Clouds 2500ft. Broken Clouds 8000ft.

Brut: TAF LGIO 240500Z 2406/2415 VRB03KT 3000 BR SCT004 BKN020 BKN070 PROB40 2406/2408 0200 FG OVC001 BECMG 2408/2410 9999 FEW008 SCT025 BKN080 PROB40 TEMPO 2410/2412 6000 RA SCT006 BKN025 BKN080

Imagini satelitare și ploaie pentru Ioannina, Grecia

Markerul cu locaţia este poziţionat pe Ioannina. [Mai mult]

Imaginea satelitară în timp real combină lumina vizibilă din timpul zilei cu radiația cu infraroșu din timpul nopții. Pe timp de noapte, imaginea nu este întunecată, deoarece radiația cu infraroșu poate detecta diferențele de temperatură. Din păcate, norii joși și ceața sunt greu de recunoscut față de temperatura de la sol, din această cauză putând fi invizibili pe timp de noapte. Imaginile satelitare Meteosat pentru Europa sunt actualizate în timp real din 5 în 5 minute. Imaginile GOES-16/GOES-17 (America de Nord și de Sud) și Himawari (Asia) sunt actualizate din 10 în 10 minute.

Cantitatea de precipitaţii este estimată cu ajutorul radarelor şi a sateliţilor. Estimările satelitare privind cantitatea de precipitaţii sunt mai puţin exacte noaptea decât în timpul zilei. Crucile portocalii marchează locurile unde fulger a fost detectat (over Europa).

Toate drepturile rezervate 2021 EUMETSAT / meteoblue. Datele despre fulgere furnizate de către nowcast.

Radar și nowcast de precipitații pentru Ioannina

Burniță
Ușoară
Moderat
Greu
Foarte greu
Grindină

Markerul de locație este plasat în Ioannina. Această animație arată radarul de precipitații pentru ultima oră, precum și o 1h prognoză. Ploaia sau ninsoarea slabă ar putea fi invizibilă pentru radar. Intensitatea precipitațiilor este codificată prin culori, de la albastru deschis la portocaliu.